Wind_Speed
51 52 51 52 51 49 48 47 47 45 45 45 44 44 42 42 44 43 37 36 31 33 33 37 33 29 28 27 25 24 20 18 26 23 28 27 23 25 22 27 29 28 29 29 25
55 54 53 54 53 51 49 48 47 46 46 45 43 44 42 39 40 36 36 32 35 38 35 32 30 27 25 26 26 26 23 27 29 28 31 25 23 29 24 28 32 29 27 26 25
53 54 53 52 51 49 48 47 45 46 45 43 43 42 41 38 37 34 35 34 32 32 33 29 28 27 29 30 29 29 27 32 34 27 27 26 25 30 33 30 33 30 21 23 26
50 48 48 47 47 46 45 43 43 43 42 41 40 40 40 39 38 33 34 31 34 34 32 30 29 30 27 27 27 26 25 30 32 22 22 28 31 31 30 32 35 33 29 25 26
59 53 55 50 47 46 44 44 44 44 40 40 39 35 35 35 35 33 31 30 32 30 29 28 26 25 22 23 23 21 24 25 28 26 26 30 30 32 29 36 34 31 32 32 30
56 56 59 54 51 51 50 50 47 44 44 43 41 40 39 42 36 33 34 32 30 29 28 25 20 18 19 19 18 21 16 23 26 26 31 29 29 29 27 38 34 29 31 34 35
55 53 51 49 49 50 49 48 46 47 47 45 46 44 44 39 37 36 35 34 31 31 30 21 21 18 17 19 19 25 25 23 25 27 26 27 24 26 32 36 35 30 32 33 34
52 52 51 48 47 46 43 41 40 42 44 44 45 42 42 44 38 33 32 32 32 33 31 24 21 19 20 19 19 22 23 25 24 28 31 30 28 29 30 34 34 33 30 37 38
51 52 49 45 44 41 41 40 40 40 40 40 37 36 36 35 35 29 35 33 30 32 31 27 23 20 19 20 23 25 26 29 29 32 33 34 32 29 31 31 33 35 34 34 35
54 50 49 46 46 46 44 45 47 46 43 41 41 39 40 33 32 33 37 33 32 31 32 33 30 28 23 25 25 29 31 31 34 34 35 37 37 35 33 33 32 37 41 41 39
54 55 53 52 51 49 50 49 51 52 48 45 45 43 43 40 38 35 37 36 34 32 33 37 36 31 28 31 34 36 33 35 34 34 39 40 39 39 41 39 36 39 45 45 41
63 61 63 59 56 58 58 56 55 54 52 49 47 46 45 46 43 38 35 36 37 37 39 39 37 34 38 37 36 38 37 35 36 32 39 41 42 43 40 41 45 49 53 52 50
73 66 69 68 61 62 60 60 60 58 58 54 51 49 46 49 45 37 40 39 41 42 39 39 39 42 43 42 39 40 38 38 39 39 41 44 40 41 42 45 50 54 57 57 55
79 75 74 68 63 63 66 62 59 60 61 60 56 55 53 53 51 44 44 46 45 43 42 45 42 43 46 46 42 38 41 40 43 45 43 45 46 43 44 48 52 52 55 58 58
83 76 75 69 60 59 55 57 60 61 60 61 62 57 56 54 54 51 47 51 49 46 49 50 47 45 46 46 47 42 42 46 47 47 47 48 52 39 49 49 45 53 57 60 62
62 59 57 56 50 52 55 49 46 49 57 57 58 59 56 53 53 52 49 46 49 48 46 46 42 46 43 41 43 44 49 49 50 50 51 46 50 47 52 54 55 50 56 56 54
77 69 65 67 69 67 67 57 53 48 45 47 50 54 57 53 50 49 42 39 40 41 39 38 41 39 42 44 46 47 50 49 51 53 52 47 56 58 52 55 58 55 47 44 44
91 88 86 80 77 79 73 69 57 53 47 40 41 44 44 46 43 41 42 44 42 39 40 43 44 43 41 45 44 47 50 53 53 52 52 54 58 57 49 49 49 47 50 53 53
68 76 85 89 84 81 74 71 58 52 50 45 43 43 47 48 44 43 39 38 35 35 40 40 44 44 45 45 47 48 51 49 51 55 58 54 51 49 50 45 43 49 50 49 46
56 60 57 63 68 69 67 73 68 56 40 48 42 39 34 36 37 35 42 44 40 40 43 44 45 46 47 48 50 51 46 44 47 49 51 53 51 48 50 44 40 42 37 40 39
55 54 54 51 54 54 73 72 50 38 39 37 35 34 33 36 39 41 38 38 40 42 44 43 45 41 47 50 47 46 45 39 41 43 49 51 50 48 45 42 48 50 49 46 46
58 56 54 53 54 55 51 50 42 36 41 40 36 35 33 42 47 47 47 44 40 45 45 46 44 44 50 49 43 36 34 38 42 45 43 45 55 42 41 44 39 41 44 47 34
54 55 52 55 55 52 44 44 44 37 44 43 39 42 45 48 51 52 54 50 48 52 50 50 50 45 46 49 44 40 39 42 47 51 56 53 52 39 40 44 49 52 43 48 50
47 51 53 56 54 52 46 46 45 42 44 47 47 48 48 51 52 52 52 55 52 52 54 56 52 54 57 54 55 55 55 50 49 54 52 50 48 35 36 41 38 39 37 40 42
57 58 56 56 45 46 48 44 45 43 46 49 51 49 50 52 49 49 51 54 53 54 55 58 58 59 62 59 58 55 50 52 46 43 47 44 44 40 38 47 49 48 50 53 50
63 63 57 48 41 39 39 40 42 45 50 49 50 49 49 50 51 49 47 44 45 46 46 55 58 57 55 47 49 48 44 40 37 40 49 50 49 45 50 51 49 49 42 39 39
63 52 55 49 47 48 37 28 34 40 46 47 45 44 48 47 48 50 50 48 46 44 44 45 41 35 38 36 38 41 35 31 37 42 40 43 42 42 43 44 40 37 41 43 43
Wind_Direction
260 261 263 264 265 266 267 268 270 271 271 273 274 274 275 277 278 281 283 283 282 286 280 287 284 283 280 282 281 276 274 264 260 256 258 263 284 288 297 295 288 286 282 294 302
261 262 262 264 266 268 268 270 271 272 272 273 273 275 275 275 277 281 286 276 283 280 275 277 280 276 279 283 282 275 271 270 268 270 270 264 281 291 287 282 286 288 299 305 294
260 263 265 265 267 268 269 270 271 272 272 273 274 274 273 272 271 281 277 280 282 280 282 277 272 275 279 280 275 273 274 274 275 269 270 277 266 275 289 289 283 291 290 281 284
260 265 266 270 270 270 269 269 272 272 272 275 274 272 270 269 273 278 276 278 280 281 279 273 272 275 278 277 272 274 272 268 278 260 260 273 279 273 275 278 282 292 293 286 279
261 266 268 268 269 268 268 272 273 270 270 272 270 268 270 270 275 273 270 275 278 278 277 275 272 277 278 272 273 273 267 273 274 271 257 265 271 271 277 280 281 282 283 285 286
262 262 265 263 264 265 267 270 270 267 269 271 261 265 271 275 269 268 274 275 275 275 270 271 269 275 274 279 275 275 272 268 272 266 267 266 268 275 276 272 282 285 283 282 285
258 258 257 260 262 266 268 267 267 268 270 269 263 270 272 268 267 267 271 271 270 269 261 261 266 274 279 275 280 270 270 270 268 266 267 270 268 268 269 277 285 285 286 282 276
256 258 256 257 260 262 265 263 267 267 268 271 270 270 268 266 263 262 264 263 267 262 255 254 263 271 279 278 275 275 283 274 265 275 278 275 277 269 271 282 286 286 289 290 294
253 254 253 254 255 257 261 264 266 267 268 268 270 274 267 264 261 260 260 260 261 258 251 253 258 264 273 278 279 278 274 276 273 274 280 283 282 280 281 281 286 291 288 288 291
249 248 249 253 255 255 257 262 264 266 265 264 268 267 268 260 258 257 260 260 258 254 252 255 257 260 270 273 277 278 279 278 277 276 277 280 283 284 284 284 292 295 288 289 291
249 250 248 253 253 257 260 257 262 265 264 263 266 267 267 264 261 253 257 262 262 255 255 256 256 259 267 274 277 277 277 282 284 275 274 278 283 284 286 294 300 293 294 295 299
243 245 249 252 253 257 259 262 260 262 264 266 263 264 261 262 258 260 257 260 262 259 257 259 260 263 265 273 277 277 279 275 271 263 269 275 281 284 288 291 290 289 291 292 290
247 245 252 254 253 256 259 256 259 260 262 261 263 261 259 259 265 258 259 261 264 261 259 261 264 263 264 268 274 273 274 273 270 266 266 270 277 274 275 279 284 287 287 289 290
250 242 244 247 251 253 258 259 256 257 257 259 256 256 255 259 261 262 263 263 262 264 264 261 262 269 270 270 270 262 268 267 264 266 270 275 271 271 279 282 282 284 284 283 284
242 240 242 238 239 241 247 248 252 252 254 255 257 257 254 256 258 260 262 263 265 265 262 266 265 264 267 272 274 274 266 265 264 268 267 269 275 274 276 278 279 278 281 282 282
239 241 237 239 238 241 236 236 240 246 251 254 256 258 257 257 257 259 264 264 265 264 263 263 265 266 269 266 266 268 268 266 265 269 264 271 281 277 275 274 278 276 281 285 287
249 246 241 249 255 269 272 268 270 253 257 265 259 261 262 260 260 259 262 262 261 263 265 263 261 260 262 268 268 264 263 266 267 268 269 268 274 281 277 278 279 281 279 274 272
270 262 260 258 254 274 273 283 273 259 276 275 270 266 264 264 264 267 265 266 266 267 268 267 267 266 266 265 263 261 262 264 265 267 270 268 273 279 277 278 275 277 276 275 281
271 273 275 275 276 280 278 281 280 282 285 274 281 281 280 279 277 275 271 264 258 264 258 261 263 262 264 263 260 264 262 266 265 264 269 273 272 273 279 281 272 275 281 283 282
267 269 268 273 276 277 275 280 286 284 269 279 280 279 270 274 271 266 273 275 268 265 248 260 258 264 258 258 256 253 258 256 263 269 272 271 273 279 285 281 274 274 267 274 284
259 257 262 257 261 262 275 282 279 271 251 255 255 263 271 251 241 239 238 244 260 260 260 260 255 244 241 250 255 257 261 259 252 256 270 276 275 277 278 269 263 263 263 275 274
249 250 253 251 246 256 266 274 269 261 235 246 246 249 248 247 240 246 225 238 259 241 241 243 241 244 240 238 227 234 239 242 254 260 261 267 274 277 268 272 262 261 259 263 272
243 249 240 241 240 250 252 252 251 242 239 239 238 238 244 241 240 248 240 239 259 246 239 235 232 233 239 233 234 237 245 253 258 264 265 264 274 274 268 278 282 277 276 276 268
243 240 235 238 240 247 244 241 242 239 234 242 239 234 236 239 243 243 243 249 255 253 254 245 242 240 233 231 240 251 256 255 257 261 264 263 271 266 262 268 271 281 261 265 265
225 235 232 239 243 249 246 241 237 238 239 240 242 240 240 244 245 249 248 251 252 252 250 251 251 247 246 249 254 255 259 264 265 262 263 269 267 271 266 268 268 273 277 274 281
224 234 231 236 236 233 233 229 235 234 239 241 246 245 248 250 251 252 251 252 255 252 245 243 244 246 254 257 258 259 261 264 267 270 267 266 269 269 270 270 272 275 281 283 283
225 237 231 227 235 231 235 235 236 240 243 244 248 247 249 252 249 250 255 256 255 253 253 255 256 258 260 259 259 257 274 266 261 256 257 258 263 259 260 263 269 275 278 279 278
Height
5831 5833 5834 5836 5836 5837 5839 5840 5841 5842 5844 5844 5844 5845 5846 5847 5846 5847 5849 5849 5849 5847 5847 5850 5849 5849 5849 5848 5847 5848 5849 5848 5844 5846 5845 5846 5846 5843 5847 5844 5842 5842 5838 5838 5841
5822 5823 5824 5826 5828 5829 5830 5831 5832 5834 5835 5836 5836 5838 5838 5839 5839 5840 5842 5840 5841 5842 5840 5842 5842 5842 5842 5842 5843 5842 5843 5841 5839 5840 5839 5840 5841 5838 5843 5840 5836 5838 5839 5838 5836
5811 5814 5816 5816 5818 5820 5821 5822 5823 5825 5826 5827 5828 5829 5830 5831 5832 5835 5833 5834 5834 5835 5835 5835 5835 5836 5836 5836 5836 5836 5838 5834 5833 5837 5836 5835 5838 5834 5831 5833 5831 5832 5837 5835 5832
5802 5804 5806 5808 5809 5811 5812 5813 5814 5816 5817 5819 5820 5821 5821 5824 5826 5827 5826 5826 5828 5829 5829 5828 5829 5829 5829 5828 5828 5830 5831 5827 5827 5833 5833 5829 5829 5831 5830 5829 5826 5825 5827 5829 5830
5791 5793 5796 5797 5800 5802 5803 5804 5806 5807 5808 5810 5812 5813 5813 5817 5819 5818 5819 5819 5821 5822 5823 5823 5822 5823 5822 5823 5822 5824 5823 5824 5824 5825 5828 5825 5825 5824 5824 5818 5820 5822 5821 5820 5821
5779 5781 5784 5786 5790 5792 5792 5795 5797 5798 5800 5801 5803 5804 5806 5810 5811 5811 5811 5813 5814 5815 5817 5817 5817 5818 5817 5817 5818 5816 5818 5819 5820 5821 5819 5819 5820 5819 5820 5810 5812 5815 5813 5814 5813
5767 5771 5773 5775 5779 5782 5782 5784 5786 5788 5790 5792 5794 5795 5798 5800 5801 5803 5804 5805 5807 5808 5810 5810 5810 5811 5812 5811 5812 5812 5812 5813 5814 5812 5812 5813 5814 5813 5809 5805 5805 5808 5806 5806 5807
5756 5759 5762 5765 5767 5771 5774 5774 5775 5778 5781 5783 5784 5785 5790 5790 5789 5793 5795 5796 5799 5801 5803 5803 5803 5804 5805 5805 5805 5806 5807 5807 5807 5806 5804 5806 5806 5803 5803 5799 5798 5796 5798 5794 5794
5745 5749 5750 5754 5758 5759 5763 5765 5766 5768 5771 5774 5775 5778 5781 5782 5783 5786 5787 5787 5790 5793 5795 5797 5796 5796 5798 5800 5799 5800 5800 5799 5799 5798 5798 5796 5796 5796 5795 5793 5790 5787 5788 5789 5788
5734 5737 5740 5743 5746 5749 5750 5754 5757 5759 5761 5766 5767 5770 5773 5775 5776 5777 5776 5779 5781 5785 5787 5789 5788 5790 5792 5792 5792 5792 5792 5793 5790 5790 5787 5787 5787 5787 5788 5786 5784 5780 5778 5779 5780
5722 5726 5729 5731 5735 5737 5741 5741 5746 5749 5752 5757 5758 5762 5762 5765 5764 5768 5769 5771 5774 5777 5779 5779 5780 5784 5784 5783 5784 5783 5784 5784 5785 5781 5779 5778 5779 5780 5779 5777 5777 5771 5770 5770 5771
5707 5710 5715 5720 5723 5726 5729 5730 5732 5739 5742 5746 5749 5751 5752 5752 5756 5758 5761 5763 5764 5768 5768 5771 5773 5775 5773 5775 5775 5774 5776 5776 5777 5775 5770 5771 5772 5772 5771 5769 5765 5763 5759 5762 5764
5695 5698 5701 5705 5708 5713 5717 5717 5721 5724 5728 5737 5740 5743 5743 5739 5746 5752 5750 5753 5755 5756 5759 5761 5764 5762 5764 5765 5766 5765 5766 5765 5764 5764 5763 5761 5766 5766 5765 5762 5758 5752 5750 5750 5752
5682 5682 5686 5691 5696 5698 5704 5706 5709 5711 5714 5725 5728 5728 5730 5733 5735 5741 5738 5742 5744 5748 5749 5749 5754 5754 5753 5754 5756 5758 5755 5754 5752 5751 5754 5750 5751 5757 5755 5749 5746 5738 5738 5738 5738
5665 5667 5671 5674 5679 5685 5689 5689 5695 5699 5702 5706 5710 5714 5720 5723 5724 5728 5727 5728 5733 5736 5735 5740 5740 5742 5743 5743 5741 5746 5744 5741 5741 5742 5744 5743 5732 5754 5742 5738 5731 5730 5728 5727 5727
5647 5652 5655 5661 5664 5669 5672 5676 5682 5687 5691 5692 5697 5697 5705 5706 5710 5715 5714 5717 5720 5721 5722 5726 5730 5728 5732 5733 5732 5733 5728 5729 5730 5729 5732 5738 5724 5738 5731 5726 5717 5716 5717 5716 5715
5631 5635 5638 5643 5648 5654 5656 5663 5668 5676 5682 5677 5687 5689 5691 5694 5696 5700 5704 5705 5707 5709 5712 5713 5716 5718 5718 5720 5720 5721 5718 5718 5717 5714 5721 5727 5716 5716 5716 5710 5706 5707 5708 5708 5704
5612 5619 5623 5629 5633 5633 5638 5648 5658 5670 5669 5659 5671 5674 5682 5682 5685 5687 5693 5695 5695 5697 5697 5698 5704 5705 5710 5709 5708 5707 5705 5707 5701 5705 5707 5715 5709 5709 5703 5700 5697 5694 5694 5693 5694
5597 5604 5609 5609 5613 5615 5625 5633 5650 5655 5652 5645 5660 5661 5667 5670 5672 5671 5679 5682 5684 5686 5684 5687 5690 5691 5693 5697 5697 5696 5693 5696 5689 5690 5691 5700 5702 5702 5694 5690 5687 5681 5681 5679 5679
5582 5589 5596 5595 5597 5601 5607 5626 5636 5640 5633 5634 5643 5648 5655 5658 5656 5655 5660 5664 5671 5675 5667 5675 5676 5679 5680 5682 5683 5681 5683 5682 5679 5676 5678 5682 5686 5687 5684 5682 5679 5672 5671 5670 5669
5566 5571 5586 5583 5582 5585 5597 5614 5618 5624 5618 5626 5631 5634 5641 5646 5646 5644 5646 5649 5655 5658 5657 5661 5664 5670 5664 5667 5670 5669 5669 5670 5669 5669 5667 5670 5675 5677 5672 5669 5667 5665 5664 5658 5661
5551 5558 5569 5568 5568 5577 5592 5601 5605 5610 5607 5611 5620 5622 5629 5632 5635 5638 5633 5633 5646 5645 5648 5647 5650 5656 5657 5657 5659 5659 5655 5654 5654 5660 5656 5653 5659 5668 5657 5658 5656 5655 5652 5648 5650
5539 5547 5551 5555 5555 5567 5583 5586 5589 5596 5596 5600 5608 5611 5615 5620 5622 5629 5623 5621 5633 5637 5637 5637 5638 5645 5648 5651 5651 5649 5645 5644 5648 5647 5648 5644 5646 5655 5651 5645 5640 5641 5637 5638 5638
5528 5532 5535 5535 5550 5558 5567 5571 5576 5584 5587 5585 5592 5597 5603 5605 5608 5615 5619 5610 5621 5624 5628 5627 5629 5634 5634 5637 5638 5636 5636 5636 5640 5636 5636 5636 5636 5644 5640 5635 5630 5625 5630 5626 5625
5514 5516 5522 5525 5542 5549 5550 5561 5566 5574 5577 5575 5576 5585 5591 5592 5596 5601 5607 5603 5609 5613 5616 5615 5617 5620 5620 5629 5627 5623 5625 5628 5628 5627 5625 5624 5626 5631 5631 5622 5618 5618 5615 5617 5617
5497 5503 5511 5522 5530 5534 5536 5546 5555 5562 5562 5564 5564 5575 5579 5580 5586 5588 5591 5593 5597 5601 5603 5601 5603 5608 5610 5615 5613 5608 5617 5621 5617 5616 5615 5615 5615 5621 5614 5608 5609 5608 5608 5607 5607
5483 5495 5500 5507 5518 5523 5532 5545 5546 5547 5550 5555 5559 5564 5567 5570 5572 5574 5579 5583 5587 5593 5595 5594 5598 5599 5601 5599 5598 5599 5614 5607 5605 5600 5602 5602 5606 5604 5603 5599 5600 5601 5598 5597 5596